Weather History for Oscoda, MI

Change the Weather History Date:

Wednesday, January 23, 2013

  Actual Average Record
Temperature  
Mean Temperature 6 °F -  
Max Temperature 14 °F 24 °F 53 °F (1999)
Min Temperature -2 °F 10 °F -11 °F (2014)
Degree Days  
Heating Degree Days 59    
Moisture  
Dew Point 0 °F    
Average Humidity 75    
Maximum Humidity 89    
Minimum Humidity 55    
Precipitation  
Precipitation 0.00 in - - ()
Sea Level Pressure  
Sea Level Pressure 30.11 in    
Wind  
Wind Speed 8 mph (WSW)    
Max Wind Speed 17 mph    
Max Gust Speed 24 mph    
Visibility 10 miles    
Events Snow    
Averages and records for this station are not official NWS values.
T = Trace of Precipitation, MM = Missing Value Source: NWS Daily Summary

Daily Weather History Graph

Daily Weather History Graph

Search for Another Location

Airport:

Trip Planner

Search our weather history database for the weather conditions in past years. The results will help you decide how hot, cold, wet, or windy it might be!

Date:

Astronomy

Jan. 23, 2013 Rise Set
Actual Time 8:00 AM EST 5:30 PM EST
Civil Twilight 7:29 AM EST 6:02 PM EST
Nautical Twilight 6:53 AM EST 6:37 PM EST
Astronomical Twilight 6:19 AM EST 7:12 PM EST
Moon 2:38 PM EST (1/23) 5:13 AM EST (1/23)
Length of Visible Light 10h 33m
Length of Day
9h 30m
Waxing Gibbous, 89% of the Moon is Illuminated
Jan 23
Waxing Gibbous
Jan 26
Full
Feb 3
Last Quarter
Feb 10
New
Feb 17
First Quarter

Hourly Weather History & Observations

Time (EST) Temp. Windchill Dew Point Humidity Pressure Visibility Wind Dir Wind Speed Gust Speed Precip Events Conditions
12:13 AM -0.8 °F -12.5 °F -6.9 °F 75% 30.20 in 10.0 mi WSW 5.8 mph - N/A   Overcast
12:34 AM -1.8 °F -15.2 °F -7.6 °F 76% 30.20 in 10.0 mi WSW 6.9 mph - N/A   Scattered Clouds
12:54 AM -1.3 °F -15.7 °F -6.9 °F 77% 30.19 in 10.0 mi WSW 8.1 mph - N/A   Clear
1:13 AM -1.5 °F -16.0 °F -7.1 °F 77% 30.19 in 10.0 mi West 8.1 mph - N/A   Clear
1:34 AM -2.7 °F -17.5 °F -7.8 °F 79% 30.19 in 10.0 mi WSW 8.1 mph - N/A   Clear
1:54 AM -2.6 °F -18.4 °F -7.6 °F 79% 30.19 in 10.0 mi WSW 9.2 mph - N/A   Clear
2:13 AM -2.7 °F -16.2 °F -7.6 °F 80% 30.19 in 10.0 mi WSW 6.9 mph - N/A   Clear
2:34 AM -2.2 °F -16.8 °F -7.1 °F 80% 30.19 in 10.0 mi WSW 8.1 mph - N/A   Clear
2:54 AM -2.6 °F -16.0 °F -7.1 °F 81% 30.20 in 10.0 mi WSW 6.9 mph - N/A   Clear
3:13 AM -2.6 °F -14.6 °F -7.2 °F 80% 30.19 in 10.0 mi WSW 5.8 mph - N/A   Clear
3:34 AM -1.8 °F -16.4 °F -5.8 °F 83% 30.19 in 10.0 mi West 8.1 mph - N/A   Clear
3:54 AM 0.1 °F -15.1 °F -4.9 °F 79% 30.18 in 10.0 mi WSW 9.2 mph - N/A   Clear
4:13 AM -1.1 °F -16.6 °F -5.6 °F 81% 30.18 in 10.0 mi WSW 9.2 mph - N/A   Clear
4:34 AM -1.3 °F -15.7 °F -5.8 °F 81% 30.17 in 10.0 mi WSW 8.1 mph - N/A   Clear
4:54 AM -1.1 °F -16.6 °F -5.3 °F 83% 30.17 in 10.0 mi WSW 9.2 mph - N/A   Clear
5:13 AM -0.6 °F -16.0 °F -4.7 °F 83% 30.16 in 10.0 mi WSW 9.2 mph - N/A   Clear
5:34 AM 1.6 °F -13.3 °F -3.1 °F 81% 30.16 in 10.0 mi WSW 9.2 mph - N/A   Mostly Cloudy
5:54 AM 2.7 °F -12.9 °F -2.2 °F 80% 30.16 in 10.0 mi WSW 10.4 mph - N/A   Overcast
6:13 AM 3.2 °F -12.2 °F -2.2 °F 78% 30.16 in 10.0 mi WSW 10.4 mph - N/A   Overcast
6:34 AM 3.2 °F -10.3 °F -2.2 °F 78% 30.16 in 10.0 mi WSW 8.1 mph - N/A   Scattered Clouds
6:54 AM 1.9 °F -11.8 °F -3.1 °F 79% 30.16 in 10.0 mi WSW 8.1 mph - N/A   Scattered Clouds
7:13 AM 1.9 °F -11.8 °F -2.9 °F 80% 30.15 in 10.0 mi SW 8.1 mph - N/A   Scattered Clouds
7:34 AM 2.7 °F -13.8 °F -2.6 °F 79% 30.15 in 10.0 mi SW 11.5 mph - N/A   Scattered Clouds
7:54 AM 2.8 °F -13.5 °F -2.6 °F 78% 30.15 in 10.0 mi WSW 11.5 mph - N/A   Mostly Cloudy
8:13 AM 3.0 °F -12.5 °F -2.6 °F 78% 30.14 in 10.0 mi WSW 10.4 mph - N/A   Scattered Clouds
8:34 AM 3.9 °F -11.3 °F -2.2 °F 76% 30.14 in 10.0 mi WSW 10.4 mph - N/A   Mostly Cloudy
8:54 AM 3.9 °F -13.7 °F -2.2 °F 76% 30.14 in 10.0 mi WSW 13.8 mph - N/A   Mostly Cloudy
9:13 AM 4.5 °F -10.7 °F -1.3 °F 77% 30.14 in 10.0 mi WSW 10.4 mph - N/A   Scattered Clouds
9:34 AM 6.1 °F -7.8 °F 0.5 °F 78% 30.14 in 10.0 mi WSW 9.2 mph - N/A   Mostly Cloudy
9:54 AM 7.3 °F -7.9 °F 1.4 °F 77% 30.13 in 10.0 mi SW 11.5 mph - N/A   Overcast
10:13 AM 8.1 °F -8.4 °F 2.1 °F 77% 30.13 in 10.0 mi WSW 13.8 mph - N/A   Overcast
10:34 AM 8.6 °F -7.0 °F 2.3 °F 76% 30.12 in 10.0 mi WSW 12.7 mph - N/A   Overcast
10:54 AM 9.9 °F -5.5 °F 2.8 °F 73% 30.12 in 10.0 mi WSW 12.7 mph 18.4 mph N/A   Overcast
11:14 AM 10.8 °F -5.0 °F 2.3 °F 69% 30.12 in 10.0 mi WSW 13.8 mph 19.6 mph N/A   Mostly Cloudy
11:34 AM 11.3 °F -3.6 °F 1.9 °F 66% 30.11 in 10.0 mi West 12.7 mph 20.7 mph N/A   Mostly Cloudy
11:53 AM 11.5 °F -5.2 °F 1.6 °F 64% 30.11 in 10.0 mi WSW 16.1 mph 21.9 mph N/A   Overcast
12:14 PM 12.4 °F -2.3 °F 1.4 °F 62% 30.10 in 10.0 mi WSW 12.7 mph 24.2 mph N/A   Overcast
12:34 PM 12.7 °F -4.1 °F 0.9 °F 59% 30.09 in 10.0 mi WSW 17.3 mph 20.7 mph N/A   Overcast
12:53 PM 12.6 °F -2.0 °F 0.5 °F 59% 30.08 in 10.0 mi WSW 12.7 mph 23.0 mph N/A   Overcast
1:14 PM 12.7 °F -1.1 °F 0.5 °F 58% 30.07 in 10.0 mi WSW 11.5 mph - N/A   Overcast
1:34 PM 13.1 °F -0.7 °F -0.2 °F 55% 30.06 in 10.0 mi West 11.5 mph - N/A   Mostly Cloudy
1:53 PM 14.5 °F 0.5 °F 1.2 °F 56% 30.05 in 10.0 mi WSW 12.7 mph 20.7 mph N/A   Mostly Cloudy
2:14 PM 14.2 °F 0.7 °F 1.2 °F 56% 30.04 in 10.0 mi West 11.5 mph 17.3 mph N/A   Overcast
2:34 PM 13.8 °F -0.5 °F 2.7 °F 61% 30.04 in 10.0 mi WSW 12.7 mph - N/A   Overcast
2:53 PM 13.3 °F 3.0 °F 3.7 °F 66% 30.03 in 7.0 mi West 6.9 mph - N/A   Overcast
3:14 PM 13.8 °F 1.0 °F 1.4 °F 58% 30.03 in 10.0 mi West 10.4 mph 18.4 mph N/A   Overcast
3:34 PM 13.5 °F -0.2 °F 1.6 °F 59% 30.03 in 10.0 mi WSW 11.5 mph - N/A   Mostly Cloudy
3:53 PM 13.8 °F 1.8 °F 2.8 °F 62% 30.03 in 10.0 mi WSW 9.2 mph - N/A   Mostly Cloudy
4:14 PM 13.6 °F 2.5 °F 2.3 °F 61% 30.03 in 10.0 mi WSW 8.1 mph - N/A   Mostly Cloudy
4:34 PM 13.3 °F 4.2 °F 3.2 °F 64% 30.03 in 10.0 mi West 5.8 mph - N/A   Mostly Cloudy
4:53 PM 13.1 °F 2.8 °F 3.2 °F 65% 30.04 in 10.0 mi SW 6.9 mph - N/A   Overcast
5:14 PM 12.4 °F 2.0 °F 4.1 °F 69% 30.04 in 10.0 mi SW 6.9 mph - N/A   Overcast
5:34 PM 12.2 °F 1.7 °F 4.1 °F 70% 30.04 in 10.0 mi WSW 6.9 mph - N/A   Overcast
5:53 PM 12.4 °F 3.1 °F 3.7 °F 68% 30.04 in 10.0 mi SW 5.8 mph - N/A   Overcast
6:14 PM 12.2 °F 4.3 °F 4.1 °F 70% 30.04 in 10.0 mi WSW 4.6 mph - N/A   Overcast
6:34 PM 11.8 °F - 4.1 °F 71% 30.04 in 10.0 mi Calm Calm - N/A   Overcast
6:53 PM 12.2 °F - 4.1 °F 70% 30.05 in 7.0 mi Calm Calm - N/A   Overcast
7:14 PM 11.8 °F - 5.2 °F 75% 30.05 in 10.0 mi Calm Calm - N/A   Overcast
7:34 PM 11.5 °F - 6.4 °F 80% 30.06 in 10.0 mi Calm Calm - N/A   Overcast
7:53 PM 11.7 °F - 6.8 °F 81% 30.06 in 10.0 mi Calm Calm - N/A   Overcast
8:14 PM 11.7 °F - 7.3 °F 83% 30.06 in 4.0 mi Calm Calm - N/A Snow Light Snow
8:34 PM 11.3 °F - 7.7 °F 85% 30.06 in 4.0 mi Calm Calm - N/A Snow Light Snow
8:53 PM 11.1 °F - 8.1 °F 87% 30.07 in 7.0 mi Calm Calm - N/A   Overcast
9:14 PM 10.9 °F - 7.7 °F 87% 30.06 in 7.0 mi Calm Calm - N/A   Overcast
9:34 PM 9.3 °F -0.5 °F 6.6 °F 89% 30.07 in 10.0 mi WSW 5.8 mph - N/A   Overcast
9:53 PM 9.0 °F 2.4 °F 6.1 °F 88% 30.07 in 10.0 mi WNW 3.5 mph - N/A   Overcast
10:14 PM 8.4 °F - 5.9 °F 89% 30.08 in 10.0 mi Calm Calm - N/A   Overcast
10:33 PM 8.2 °F 1.6 °F 5.7 °F 89% 30.09 in 10.0 mi NW 3.5 mph - N/A   Overcast
10:53 PM 7.7 °F 1.0 °F 5.0 °F 89% 30.10 in 10.0 mi WNW 3.5 mph - N/A   Scattered Clouds
11:14 PM 6.6 °F -2.2 °F 3.9 °F 89% 30.11 in 10.0 mi NW 4.6 mph - N/A   Mostly Cloudy
11:33 PM 7.9 °F -3.5 °F 5.0 °F 88% 30.11 in 10.0 mi NW 6.9 mph - N/A   Overcast
11:53 PM 8.4 °F -3.9 °F 5.0 °F 86% 30.12 in 10.0 mi NW 8.1 mph - N/A   Overcast